This is the latest recevied weather packets stored in our database for station/object W1SCW. If no packets are shown the sender has not sent any weather packets the latest 10 day(s).
| Time | Temp. | Humidity | Pressure | Rain* | Wind** | Luminosity | Snow |
|---|---|---|---|---|---|---|---|
| 1777781771 | 16.67° C | 77% | 1019.1 hPa | 0 mm | - | 0 W/m² | - |
| 1777781469 | 17.22° C | 76% | 1019 hPa | 0 mm | - | 0 W/m² | - |
| 1777781166 | 17.78° C | 75% | 1019.3 hPa | 0 mm | - | 0 W/m² | - |
| 1777780863 | 17.78° C | 75% | 1019.2 hPa | 0 mm | - | 0 W/m² | - |
| 1777780560 | 17.78° C | 75% | 1019 hPa | 0 mm | - | 0 W/m² | - |
| 1777780258 | 17.22° C | 75% | 1019.3 hPa | 0 mm | - | 0 W/m² | - |
| 1777779955 | 17.22° C | 76% | 1018.8 hPa | 0 mm | - | 0 W/m² | - |
| 1777779652 | 17.22° C | 76% | 1018.9 hPa | 0 mm | - | 0 W/m² | - |
| 1777779349 | 17.22° C | 76% | 1018.8 hPa | 0 mm | - | 0 W/m² | - |
| 1777779047 | 17.22° C | 75% | 1018.8 hPa | 0 mm | - | 0 W/m² | - |
| 1777778745 | 17.78° C | 73% | 1018.7 hPa | 0 mm | - | 0 W/m² | - |
| 1777778443 | 18.33° C | 71% | 1018.5 hPa | 0 mm | - | 0 W/m² | - |
| 1777778140 | 18.33° C | 70% | 1018.5 hPa | 0 mm | - | 0 W/m² | - |
| 1777777837 | 18.33° C | 70% | 1018.4 hPa | 0 mm | - | 0 W/m² | - |
| 1777777533 | 18.89° C | 69% | 1018.6 hPa | 0 mm | - | 0 W/m² | - |
| 1777777231 | 18.89° C | 70% | 1018.4 hPa | 0 mm | - | 0 W/m² | - |
| 1777776927 | 18.89° C | 70% | 1018.5 hPa | 0 mm | - | 0 W/m² | - |
| 1777776625 | 18.89° C | 70% | 1018.5 hPa | 0 mm | - | 0 W/m² | - |
| 1777776321 | 18.89° C | 70% | 1018.6 hPa | 0 mm | - | 0 W/m² | - |
| 1777776019 | 18.89° C | 69% | 1018.4 hPa | 0 mm | - | 0 W/m² | - |
| 1777775715 | 19.44° C | 68% | 1018.5 hPa | 0 mm | - | 0 W/m² | - |
| 1777775412 | 19.44° C | 67% | 1018.3 hPa | 0 mm | - | 0 W/m² | - |
| 1777775108 | 20° C | 65% | 1018.2 hPa | 0 mm | - | 0 W/m² | - |
| 1777774803 | 20° C | 65% | 1018.3 hPa | 0 mm | - | 0 W/m² | - |
| 1777774500 | 20° C | 63% | 1018.3 hPa | 0 mm | - | 0 W/m² | - |
* Rain latest hour (hover to see other rain measurements)
** Current wind speed in m/s (hover to see current wind gust speed)